| time (UTC) | temp F | wind direction | speed MPH | gust MPH | rain 1hr in | rain 24hr in | rain mn in | humidity % | barometer mb |
| 20260504150345 | 52 | 349 | 7.0 | 11.0 | 0.00 | 0.00 | 0.00 | 41 | 1013.7 |
| 20260504141315 | 51 | 88 | 4.0 | 7.0 | 0.00 | 0.00 | 0.00 | 48 | 1013.3 |
| 20260504140812 | 51 | 156 | 2.0 | 2.0 | 0.00 | 0.00 | 0.00 | 47 | 1013.1 |
| 20260504140308 | 50 | 102 | 2.0 | 6.0 | 0.00 | 0.00 | 0.00 | 46 | 1013.1 |
| 20260504130737 | 47 | 138 | 5.0 | 10.0 | 0.00 | 0.00 | 0.00 | 47 | 1013.1 |
| 20260504130232 | 47 | 154 | 6.0 | 10.0 | 0.00 | 0.00 | 0.00 | 47 | 1012.8 |
| 20260504120156 | 48 | 198 | 3.0 | 9.0 | 0.00 | 0.00 | 0.00 | 47 | 1012.5 |
| 20260504110623 | 41 | 265 | 0.0 | 1.0 | 0.00 | 0.00 | 0.00 | 65 | 1011.2 |
| 20260504110120 | 41 | 260 | 0.0 | 4.0 | 0.00 | 0.00 | 0.00 | 64 | 1011.4 |
| 20260504100545 | 43 | 316 | 5.0 | 6.0 | 0.00 | 0.00 | 0.00 | 63 | 1010.6 |
| 20260504081939 | 45 | 136 | 0.0 | 0.0 | 0.00 | 0.00 | 0.00 | 58 | 1009.7 |
| 20260504081436 | 45 | 136 | 0.0 | 1.0 | 0.00 | 0.00 | 0.00 | 58 | 1009.5 |
| 20260504080932 | 45 | 138 | 0.0 | 1.0 | 0.00 | 0.00 | 0.00 | 58 | 1009.6 |
| 20260504080428 | 45 | 138 | 0.0 | 1.0 | 0.00 | 0.00 | 0.00 | 58 | 1009.9 |
| 20260504070356 | 48 | 153 | 1.0 | 1.0 | 0.00 | 0.00 | 0.00 | 55 | 1009.6 |
| 20260504050743 | 53 | 275 | 0.0 | 0.0 | 0.00 | 0.00 | 0.00 | 46 | 1009.6 |
| 20260504050242 | 53 | 275 | 0.0 | 0.0 | 0.00 | 0.00 | 0.00 | 45 | 1009.6 |
| 20260504045739 | 54 | 275 | 0.0 | 0.0 | 0.00 | 0.00 | 0.00 | 44 | 1009.5 |
| 20260504045239 | 54 | 276 | 0.0 | 0.0 | 0.00 | 0.00 | 0.00 | 44 | 1009.5 |
| 20260504044737 | 54 | 276 | 0.0 | 0.0 | 0.00 | 0.00 | 0.00 | 43 | 1009.3 |
| 20260504044234 | 54 | 276 | 0.0 | 0.0 | 0.00 | 0.00 | 0.00 | 43 | 1009.4 |
| 20260504043731 | 54 | 277 | 0.0 | 0.0 | 0.00 | 0.00 | 0.00 | 42 | 1009.6 |
| 20260504043228 | 54 | 282 | 0.0 | 1.0 | 0.00 | 0.00 | 0.00 | 42 | 1009.4 |
| 20260504042726 | 54 | 282 | 0.0 | 0.0 | 0.00 | 0.00 | 0.00 | 42 | 1009.1 |
| 20260504042222 | 55 | 320 | 0.0 | 0.0 | 0.00 | 0.00 | 0.00 | 42 | 1009.3 |
| 20260504041718 | 55 | 320 | 0.0 | 0.0 | 0.00 | 0.00 | 0.00 | 41 | 1009.1 |
| 20260504041214 | 55 | 322 | 1.0 | 1.0 | 0.00 | 0.00 | 0.00 | 41 | 1009.3 |
| 20260504040710 | 55 | 2 | 0.0 | 0.0 | 0.00 | 0.00 | 0.00 | 39 | 1009.1 |
| 20260504040208 | 55 | 2 | 0.0 | 0.0 | 0.00 | 0.00 | 0.00 | 38 | 1008.9 |
| 20260504035704 | 56 | 2 | 0.0 | 0.0 | 0.00 | 0.00 | 0.00 | 38 | 1009.0 |
| 20260504035202 | 56 | 2 | 0.0 | 0.0 | 0.00 | 0.00 | 0.00 | 37 | 1008.9 |
| 20260504034659 | 58 | 2 | 0.0 | 0.0 | 0.00 | 0.00 | 0.00 | 36 | 1008.6 |
| 20260504034155 | 58 | 2 | 0.0 | 0.0 | 0.00 | 0.00 | 0.00 | 36 | 1008.8 |
| 20260504033653 | 58 | 2 | 1.0 | 2.0 | 0.00 | 0.00 | 0.00 | 35 | 1008.5 |
| 20260504033150 | 58 | 14 | 0.0 | 0.0 | 0.00 | 0.00 | 0.00 | 36 | 1008.6 |
| 20260504032647 | 58 | 13 | 1.0 | 1.0 | 0.00 | 0.00 | 0.00 | 36 | 1008.5 |
| 20260504032144 | 59 | 17 | 0.0 | 0.0 | 0.00 | 0.00 | 0.00 | 35 | 1008.5 |
| 20260504031641 | 59 | 16 | 0.0 | 1.0 | 0.00 | 0.00 | 0.00 | 35 | 1008.5 |
| 20260504031138 | 60 | 18 | 0.0 | 1.0 | 0.00 | 0.00 | 0.00 | 35 | 1008.2 |
| 20260504030634 | 60 | 8 | 0.0 | 1.0 | 0.00 | 0.00 | 0.00 | 35 | 1008.2 |
| 20260504030131 | 61 | 14 | 0.0 | 0.0 | 0.00 | 0.00 | 0.00 | 34 | 1008.1 |
| 20260504025628 | 62 | 13 | 1.0 | 1.0 | 0.00 | 0.00 | 0.00 | 33 | 1008.2 |
| 20260504025125 | 62 | 17 | 2.0 | 2.0 | 0.00 | 0.00 | 0.00 | 32 | 1008.0 |
| 20260504024622 | 63 | 353 | 0.0 | 2.0 | 0.00 | 0.00 | 0.00 | 32 | 1007.7 |
| 20260504024118 | 63 | 16 | 0.0 | 2.0 | 0.00 | 0.00 | 0.00 | 31 | 1008.2 |
| 20260504023615 | 64 | 18 | 0.0 | 0.0 | 0.00 | 0.00 | 0.00 | 31 | 1007.9 |
| 20260504023111 | 64 | 0 | 1.0 | 2.0 | 0.00 | 0.00 | 0.00 | 30 | 1008.1 |
| 20260504022608 | 65 | 6 | 1.0 | 1.0 | 0.00 | 0.00 | 0.00 | 29 | 1008.2 |
| 20260504022104 | 66 | 16 | 1.0 | 2.0 | 0.00 | 0.00 | 0.00 | 28 | 1007.9 |
| 20260504021602 | 67 | 358 | 2.0 | 3.0 | 0.00 | 0.00 | 0.00 | 27 | 1008.2 |
| 20260504021058 | 68 | 32 | 1.0 | 3.0 | 0.00 | 0.00 | 0.00 | 26 | 1008.1 |
| 20260504020555 | 68 | 9 | 0.0 | 2.0 | 0.00 | 0.00 | 0.00 | 25 | 1008.0 |
| 20260504020051 | 69 | 7 | 2.0 | 4.0 | 0.00 | 0.00 | 0.00 | 24 | 1008.1 |
| 20260504015548 | 70 | 21 | 2.0 | 4.0 | 0.00 | 0.00 | 0.00 | 23 | 1008.1 |
| 20260504015044 | 71 | 32 | 4.0 | 7.0 | 0.00 | 0.00 | 0.00 | 22 | 1008.0 |
| 20260504014540 | 71 | 325 | 3.0 | 4.0 | 0.00 | 0.00 | 0.00 | 22 | 1008.0 |
| 20260504014038 | 71 | 4 | 2.0 | 6.0 | 0.00 | 0.00 | 0.00 | 21 | 1008.2 |
| 20260504013535 | 72 | 315 | 4.0 | 7.0 | 0.00 | 0.00 | 0.00 | 19 | 1008.0 |
| 20260504013032 | 72 | 33 | 2.0 | 7.0 | 0.00 | 0.00 | 0.00 | 21 | 1008.0 |
| 20260504012530 | 73 | 326 | 2.0 | 4.0 | 0.00 | 0.00 | 0.00 | 18 | 1008.2 |
| 20260504012027 | 74 | 316 | 1.0 | 3.0 | 0.00 | 0.00 | 0.00 | 17 | 1008.0 |
| 20260504011524 | 74 | 280 | 1.0 | 3.0 | 0.00 | 0.00 | 0.00 | 17 | 1008.0 |
| 20260504011020 | 74 | 261 | 1.0 | 3.0 | 0.00 | 0.00 | 0.00 | 17 | 1008.0 |
| 20260504010516 | 74 | 323 | 2.0 | 3.0 | 0.00 | 0.00 | 0.00 | 16 | 1008.2 |
| 20260504010012 | 74 | 311 | 2.0 | 2.0 | 0.00 | 0.00 | 0.00 | 18 | 1008.2 |
| 20260504005509 | 74 | 343 | 2.0 | 3.0 | 0.00 | 0.00 | 0.00 | 17 | 1008.4 |
| 20260504005006 | 74 | 331 | 2.0 | 4.0 | 0.00 | 0.00 | 0.00 | 17 | 1008.4 |
| 20260504004504 | 74 | 26 | 1.0 | 2.0 | 0.00 | 0.00 | 0.00 | 18 | 1008.2 |
| 20260504004000 | 74 | 9 | 2.0 | 3.0 | 0.00 | 0.00 | 0.00 | 19 | 1008.4 |
| 20260504003456 | 74 | 342 | 1.0 | 2.0 | 0.00 | 0.00 | 0.00 | 19 | 1008.4 |
| 20260504002954 | 75 | 293 | 2.0 | 3.0 | 0.00 | 0.00 | 0.00 | 18 | 1008.7 |
| 20260504002450 | 74 | 350 | 0.0 | 1.0 | 0.00 | 0.00 | 0.00 | 18 | 1008.6 |
| 20260504001948 | 74 | 301 | 1.0 | 2.0 | 0.00 | 0.00 | 0.00 | 18 | 1008.5 |
| 20260504001445 | 75 | 307 | 3.0 | 3.0 | 0.00 | 0.00 | 0.00 | 18 | 1008.5 |
| 20260504000942 | 77 | 334 | 2.0 | 7.0 | 0.00 | 0.00 | 0.00 | 17 | 1008.9 |
| 20260504000439 | 77 | 287 | 1.0 | 6.0 | 0.00 | 0.00 | 0.00 | 17 | 1008.8 |
| 20260503235936 | 76 | 290 | 3.0 | 6.0 | 0.00 | 0.00 | 0.00 | 18 | 1008.8 |
| 20260503235434 | 76 | 199 | 2.0 | 3.0 | 0.00 | 0.00 | 0.00 | 17 | 1008.7 |
| 20260503234931 | 77 | 285 | 5.0 | 9.0 | 0.00 | 0.00 | 0.00 | 17 | 1008.7 |
| 20260503234428 | 77 | 286 | 1.0 | 6.0 | 0.00 | 0.00 | 0.00 | 18 | 1008.9 |
| 20260503233927 | 77 | 273 | 3.0 | 6.0 | 0.00 | 0.00 | 0.00 | 17 | 1009.1 |
| 20260503233423 | 77 | 288 | 2.0 | 3.0 | 0.00 | 0.00 | 0.00 | 17 | 1008.8 |
| 20260503232919 | 75 | 320 | 1.0 | 2.0 | 0.00 | 0.00 | 0.00 | 17 | 1009.0 |
| 20260503232416 | 76 | 326 | 2.0 | 6.0 | 0.00 | 0.00 | 0.00 | 18 | 1009.3 |
| 20260503231914 | 76 | 303 | 4.0 | 7.0 | 0.00 | 0.00 | 0.00 | 18 | 1009.0 |
| 20260503231411 | 77 | 296 | 4.0 | 6.0 | 0.00 | 0.00 | 0.00 | 19 | 1009.3 |
| 20260503230907 | 75 | 321 | 1.0 | 6.0 | 0.00 | 0.00 | 0.00 | 18 | 1009.6 |
| 20260503230404 | 76 | 309 | 4.0 | 8.0 | 0.00 | 0.00 | 0.00 | 17 | 1009.5 |
| 20260503225902 | 76 | 304 | 4.0 | 6.0 | 0.00 | 0.00 | 0.00 | 17 | 1009.7 |
| 20260503225357 | 77 | 279 | 4.0 | 7.0 | 0.00 | 0.00 | 0.00 | 17 | 1009.6 |
| 20260503224854 | 76 | 320 | 2.0 | 6.0 | 0.00 | 0.00 | 0.00 | 18 | 1009.6 |
| 20260503224351 | 77 | 291 | 2.0 | 4.0 | 0.00 | 0.00 | 0.00 | 18 | 1009.9 |
| 20260503223849 | 77 | 333 | 6.0 | 11.0 | 0.00 | 0.00 | 0.00 | 18 | 1009.8 |
| 20260503223347 | 77 | 292 | 3.0 | 11.0 | 0.00 | 0.00 | 0.00 | 16 | 1009.8 |
| 20260503222842 | 76 | 322 | 1.0 | 3.0 | 0.00 | 0.00 | 0.00 | 18 | 1010.1 |
| 20260503222341 | 75 | 266 | 1.0 | 6.0 | 0.00 | 0.00 | 0.00 | 18 | 1009.9 |
| 20260503221838 | 76 | 19 | 6.0 | 8.0 | 0.00 | 0.00 | 0.00 | 18 | 1010.1 |
| 20260503221337 | 76 | 326 | 4.0 | 6.0 | 0.00 | 0.00 | 0.00 | 19 | 1010.3 |
| 20260503220832 | 76 | 314 | 1.0 | 2.0 | 0.00 | 0.00 | 0.00 | 19 | 1010.4 |
| 20260503220329 | 75 | 59 | 1.0 | 8.0 | 0.00 | 0.00 | 0.00 | 20 | 1010.5 |
| 20260503215826 | 76 | 252 | 4.0 | 8.0 | 0.00 | 0.00 | 0.00 | 19 | 1010.2 |
| 20260503215323 | 77 | 247 | 4.0 | 8.0 | 0.00 | 0.00 | 0.00 | 19 | 1010.4 |
| 20260503214821 | 77 | 308 | 5.0 | 7.0 | 0.00 | 0.00 | 0.00 | 19 | 1010.6 |
| 20260503214318 | 77 | 314 | 3.0 | 6.0 | 0.00 | 0.00 | 0.00 | 19 | 1010.6 |
| 20260503213815 | 77 | 316 | 3.0 | 11.0 | 0.00 | 0.00 | 0.00 | 19 | 1010.7 |
| 20260503213313 | 77 | 316 | 2.0 | 4.0 | 0.00 | 0.00 | 0.00 | 20 | 1010.7 |
| 20260503212810 | 77 | 182 | 0.0 | 3.0 | 0.00 | 0.00 | 0.00 | 19 | 1011.0 |
| 20260503212308 | 75 | 286 | 0.0 | 4.0 | 0.00 | 0.00 | 0.00 | 20 | 1011.0 |
| 20260503211805 | 75 | 320 | 3.0 | 8.0 | 0.00 | 0.00 | 0.00 | 19 | 1011.1 |
| 20260503211301 | 75 | 299 | 5.0 | 7.0 | 0.00 | 0.00 | 0.00 | 20 | 1011.1 |
| 20260503210801 | 75 | 262 | 2.0 | 4.0 | 0.00 | 0.00 | 0.00 | 21 | 1011.4 |
| 20260503210259 | 75 | 87 | 2.0 | 4.0 | 0.00 | 0.00 | 0.00 | 21 | 1011.4 |
| 20260503205754 | 75 | 256 | 1.0 | 7.0 | 0.00 | 0.00 | 0.00 | 20 | 1011.9 |
| 20260503205251 | 77 | 290 | 3.0 | 3.0 | 0.00 | 0.00 | 0.00 | 20 | 1012.0 |
| 20260503204747 | 74 | 303 | 2.0 | 3.0 | 0.00 | 0.00 | 0.00 | 22 | 1011.5 |
| 20260503204245 | 75 | 260 | 6.0 | 9.0 | 0.00 | 0.00 | 0.00 | 22 | 1011.8 |
| 20260503203742 | 74 | 159 | 1.0 | 4.0 | 0.00 | 0.00 | 0.00 | 22 | 1012.0 |
| 20260503203240 | 74 | 300 | 4.0 | 10.0 | 0.00 | 0.00 | 0.00 | 22 | 1012.1 |
| 20260503202737 | 74 | 290 | 3.0 | 6.0 | 0.00 | 0.00 | 0.00 | 23 | 1012.1 |
| 20260503202234 | 73 | 306 | 4.0 | 7.0 | 0.00 | 0.00 | 0.00 | 23 | 1012.3 |
| 20260503201732 | 74 | 47 | 2.0 | 8.0 | 0.00 | 0.00 | 0.00 | 21 | 1012.2 |
| 20260503201230 | 73 | 329 | 5.0 | 7.0 | 0.00 | 0.00 | 0.00 | 23 | 1012.2 |
| 20260503200726 | 73 | 313 | 4.0 | 7.0 | 0.00 | 0.00 | 0.00 | 23 | 1012.5 |
| 20260503200222 | 74 | 309 | 1.0 | 6.0 | 0.00 | 0.00 | 0.00 | 21 | 1012.6 |
| 20260503195719 | 75 | 296 | 4.0 | 6.0 | 0.00 | 0.00 | 0.00 | 22 | 1012.3 |
| 20260503195216 | 74 | 111 | 2.0 | 3.0 | 0.00 | 0.00 | 0.00 | 22 | 1012.6 |
| 20260503194713 | 73 | 328 | 2.0 | 3.0 | 0.00 | 0.00 | 0.00 | 22 | 1012.8 |
| 20260503194209 | 73 | 315 | 4.0 | 4.0 | 0.00 | 0.00 | 0.00 | 22 | 1012.7 |
| 20260503193705 | 71 | 336 | 2.0 | 2.0 | 0.00 | 0.00 | 0.00 | 24 | 1012.7 |
| 20260503193201 | 72 | 298 | 4.0 | 4.0 | 0.00 | 0.00 | 0.00 | 24 | 1013.0 |
| 20260503192657 | 72 | 137 | 2.0 | 4.0 | 0.00 | 0.00 | 0.00 | 23 | 1012.9 |
| 20260503192153 | 70 | 282 | 3.0 | 6.0 | 0.00 | 0.00 | 0.00 | 25 | 1013.0 |
| 20260503191649 | 71 | 297 | 3.0 | 4.0 | 0.00 | 0.00 | 0.00 | 24 | 1013.1 |
| 20260503191147 | 73 | 15 | 0.0 | 6.0 | 0.00 | 0.00 | 0.00 | 24 | 1013.5 |
| 20260503190643 | 72 | 285 | 2.0 | 4.0 | 0.00 | 0.00 | 0.00 | 25 | 1013.4 |
| 20260503190140 | 72 | 320 | 2.0 | 4.0 | 0.00 | 0.00 | 0.00 | 24 | 1013.5 |
| 20260503185637 | 73 | 354 | 1.0 | 3.0 | 0.00 | 0.00 | 0.00 | 24 | 1013.5 |
| 20260503185132 | 72 | 336 | 0.0 | 2.0 | 0.00 | 0.00 | 0.00 | 25 | 1013.4 |
| 20260503184627 | 70 | 33 | 1.0 | 2.0 | 0.00 | 0.00 | 0.00 | 25 | 1013.8 |
| 20260503184124 | 71 | 25 | 2.0 | 4.0 | 0.00 | 0.00 | 0.00 | 27 | 1013.8 |
| 20260503183621 | 72 | 337 | 4.0 | 7.0 | 0.00 | 0.00 | 0.00 | 27 | 1013.8 |
| 20260503183118 | 71 | 279 | 1.0 | 2.0 | 0.00 | 0.00 | 0.00 | 27 | 1013.7 |
| 20260503182616 | 70 | 194 | 2.0 | 3.0 | 0.00 | 0.00 | 0.00 | 27 | 1014.2 |
| 20260503182114 | 70 | 99 | 1.0 | 2.0 | 0.00 | 0.00 | 0.00 | 27 | 1013.8 |
| 20260503181611 | 69 | 74 | 2.0 | 3.0 | 0.00 | 0.00 | 0.00 | 29 | 1013.9 |
| 20260503181108 | 69 | 145 | 1.0 | 3.0 | 0.00 | 0.00 | 0.00 | 30 | 1013.9 |
| 20260503180605 | 69 | 304 | 1.0 | 2.0 | 0.00 | 0.00 | 0.00 | 30 | 1014.2 |
| 20260503180103 | 69 | 81 | 2.0 | 2.0 | 0.00 | 0.00 | 0.00 | 30 | 1014.3 |
| 20260503175559 | 69 | 331 | 1.0 | 2.0 | 0.00 | 0.00 | 0.00 | 28 | 1014.4 |
| 20260503175056 | 69 | 306 | 3.0 | 3.0 | 0.00 | 0.00 | 0.00 | 29 | 1014.5 |
| 20260503174553 | 67 | 132 | 1.0 | 1.0 | 0.00 | 0.00 | 0.00 | 32 | 1014.5 |
| 20260503174050 | 66 | 80 | 2.0 | 4.0 | 0.00 | 0.00 | 0.00 | 33 | 1014.5 |
| 20260503173545 | 68 | 311 | 0.0 | 7.0 | 0.00 | 0.00 | 0.00 | 30 | 1014.6 |
| 20260503173041 | 67 | 62 | 0.0 | 2.0 | 0.00 | 0.00 | 0.00 | 32 | 1014.4 |
| 20260503172539 | 67 | 331 | 2.0 | 3.0 | 0.00 | 0.00 | 0.00 | 31 | 1014.7 |
| 20260503172036 | 67 | 0 | 1.0 | 2.0 | 0.00 | 0.00 | 0.00 | 32 | 1014.7 |
| 20260503171532 | 65 | 89 | 1.0 | 2.0 | 0.00 | 0.00 | 0.00 | 33 | 1014.8 |
| 20260503171030 | 67 | 74 | 2.0 | 3.0 | 0.00 | 0.00 | 0.00 | 31 | 1015.0 |
| 20260503170526 | 66 | 26 | 1.0 | 2.0 | 0.00 | 0.00 | 0.00 | 31 | 1015.0 |
| 20260503150918 | 56 | 85 | 0.0 | 2.0 | 0.00 | 0.00 | 0.00 | 43 | 1015.8 |